Terminal Aerodrome Forecast
Issued by NWS

Home | Current Version | Previous Version | Graphics & Text | Print | Product List | Glossary On
Versions: 1 2 3 4 5 6 7 8 9 10 11 12 13 14 15 16 17 18 19
938
FTUS43 KABR 192331
TAFPIR
TAF
KPIR 192331Z 2000/2024 14012KT P6SM SKC
     FM200500 11005KT P6SM FEW250
     FM200700 05005KT P6SM FEW250
     FM200800 34006KT P6SM SCT250
     FM201200 03009KT P6SM SCT250=

USA.gov is the U.S. government's official web portal to all federal, state and local government web resources and services.